This is the latest recevied weather packets stored in our database for station/object KD0SBN-3. If no packets are shown the sender has not sent any weather packets the latest 10 day(s).
| Time | Temp. | Humidity | Pressure | Rain* | Wind** | Luminosity | Snow |
|---|---|---|---|---|---|---|---|
| 1777587394 | -1.11° C | 97% | 1024.3 hPa | 0 mm | - | 52 W/m² | - |
| 1777587090 | -1.11° C | 97% | 1024.3 hPa | 0 mm | - | 31 W/m² | - |
| 1777586787 | -1.11° C | 97% | 1024.1 hPa | 0 mm | - | 35 W/m² | - |
| 1777586482 | -1.11° C | 97% | 1024.5 hPa | 0 mm | - | 32 W/m² | - |
| 1777586177 | -1.11° C | 97% | 1024.5 hPa | 0 mm | - | 33 W/m² | - |
| 1777585875 | -1.11° C | 97% | 1024.5 hPa | 0 mm | - | 29 W/m² | - |
| 1777585570 | -1.11° C | 97% | 1024.3 hPa | 0 mm | - | 23 W/m² | - |
| 1777585266 | -1.11° C | 97% | 1024.6 hPa | 0 mm | - | 26 W/m² | - |
| 1777584961 | -1.11° C | 97% | 1024.2 hPa | 0 mm | - | 30 W/m² | - |
| 1777584658 | -0.56° C | 97% | 1024.5 hPa | 0 mm | - | 37 W/m² | - |
| 1777584356 | -0.56° C | 97% | 1024.6 hPa | 0 mm | - | 54 W/m² | - |
| 1777584051 | -0.56° C | 97% | 1024.6 hPa | 0 mm | - | 77 W/m² | - |
| 1777583746 | -1.11° C | 97% | 1024.6 hPa | 0 mm | - | 73 W/m² | - |
| 1777583445 | -0.56° C | 97% | 1024.6 hPa | 0 mm | - | 70 W/m² | - |
| 1777583145 | -0.56° C | 97% | 1024.7 hPa | 0 mm | - | 66 W/m² | - |
| 1777582841 | -1.11° C | 97% | 1024.7 hPa | 0 mm | - | 64 W/m² | - |
| 1777582538 | -1.11° C | 97% | 1024.7 hPa | 0 mm | - | 61 W/m² | - |
| 1777582233 | -1.11° C | 96% | 1024.5 hPa | 0 mm | - | 61 W/m² | - |
| 1777581931 | -1.11° C | 97% | 1024.7 hPa | 0 mm | - | 75 W/m² | - |
| 1777581626 | -1.11° C | 96% | 1024.3 hPa | 0 mm | - | 65 W/m² | - |
| 1777581320 | -0.56° C | 96% | 1024.6 hPa | 0 mm | - | 53 W/m² | - |
| 1777581016 | -0.56° C | 96% | 1024.9 hPa | 0 mm | - | 39 W/m² | - |
| 1777580715 | -0.56° C | 96% | 1024.7 hPa | 0 mm | - | 43 W/m² | - |
| 1777580411 | -0.56° C | 96% | 1024.5 hPa | 0 mm | - | 58 W/m² | - |
| 1777580107 | -0.56° C | 96% | 1024.6 hPa | 0 mm | - | 68 W/m² | - |
* Rain latest hour (hover to see other rain measurements)
** Current wind speed in m/s (hover to see current wind gust speed)